sat.trackr.live / text

‹ back to catalog

STARLINK-34092

NORAD 63904 · 2025-095Q

PAYLOAD ACTIVE UNKNOWN

§ Identity

Operator
Country
US
Launch date
2025-05-10
Launch site
AFETR
Launch vehicle
Mass (kg)
RCS (m²)

Purposes: comms

External: N2YO · Heavens-Above · Gunter

§ Orbital elements

Epoch: 2026-09-20T09:40:50.635776Z

Period
94.27 min
Inclination
42.9972°
Eccentricity
0.0003204
Mean motion
15.27592819 rev/d
Perigee alt
480.8 km
Apogee alt
485.2 km
Semi-major
6,861.1 km
B*
5.6606e-4
RAAN
156.8437°
Arg perigee
261.1205°
Mean anomaly
98.9284°
Rev number
7,755

§ Raw data

STARLINK-340921 63904U 25095Q   26263.40336384  .00015354  00000+0  56606-3 0  99962 63904  42.9972 156.8437 0003204 261.1205  98.9284 15.27592819 77550

JSON: /api/v1/satellites/63904 · /tle

For live sub-satellite position, see the globe view (requires WebGL).

§ Visibility from observer

Set your observer location to see the next 7 days of passes ≥ 10°. The values pass through the URL so the page stays shareable.

No JS? Fill the form by hand. The geolocation button needs JavaScript.